Regional Weather Roundup
Issued by NWS Midland/Odessa, TX

Home | Current Version | Previous Version | Text Only | Print | Product List | Glossary On
Versions: 1 2 3 4 5 6 7 8 9 10 11 12 13 14 15 16 17 18 19 20 21 22 23 24 25 26 27 28 29 30 31 32 33 34 35 36 37 38 39 40 41 42 43 44 45 46 47 48 49 50
000
ASUS44 KMAF 201910
RWRMAF
MIDLAND AREA WEATHER ROUNDUP
NATIONAL WEATHER SERVICE MIDLAND TX
100 PM CST SAT DEC 20 2014

...IN SOUTHWEST TEXAS AND SOUTHEAST NEW MEXICO...

CITY           SKY/WX    TMP DP  RH WIND       PRES   REMARKS
ALPINE         SUNNY     59  31  33 SW13G18   30.16F
ANDREWS        FAIR      46  40  79 S6        30.10F
ARTESIA        SUNNY     50  28  43 SE8       30.08F
BIG SPRING     CLOUDY    47  44  88 SE10      30.15F
CARLSBAD       SUNNY     49  33  54 SE7       30.08F
DRYDEN           N/A     52  45  77 CALM      30.12F
FORT STOCKTON  SUNNY     57  31  37 CALM      30.10F
GUAD PASS      NOT AVBL
HOBBS          SUNNY     45  39  81 SE8       30.08F
MARFA          SUNNY     55  34  44 SW7       30.13F
MIDLAND AIRPK  PTSUNNY   49  49 100 E3        30.12F
MIDLAND INTL   MOSUNNY   53  40  61 SE3       30.10F
ODESSA         SUNNY     51  39  63 MISG      30.11F
PECOS          SUNNY     51  33  49 N3        30.11F
PRESIDIO       FAIR      58  33  39 CALM      30.11F
SEMINOLE       PTSUNNY   45  38  76 S6        30.11F
SNYDER         CLOUDY    45  40  85 S8        30.15F
WINK           SUNNY     51  31  46 W7        30.10F
$$
...OTHER STATIONS IN TEXAS...

CITY           SKY/WX    TMP DP  RH WIND       PRES   REMARKS
ABILENE        CLOUDY    48  39  71 S7        30.18F
AMARILLO       SUNNY     45  32  60 S14       30.07F WCI  38
AUSTIN         CLOUDY    53  46  77 N7        30.20F
BROWNSVILLE    CLOUDY    61  54  77 N16       30.14F
CORPUS CHRISTI DRIZZLE   56  50  80 N6        30.18F
DALLAS FTW     DRIZZLE   46  43  89 NE5       30.22F FOG
DEL RIO        CLOUDY    55  46  71 SE8       30.15F
EL PASO        MOSUNNY   51  26  37 VRB3      30.14F
HOUSTON INT    CLOUDY    54  49  83 N8        30.18S
LUBBOCK        CLOUDY    46  37  71 S10       30.09F
SAN ANGELO     CLOUDY    51  44  77 E7        30.16F
SAN ANTONIO    MOSUNNY   56  44  64 N12       30.17F
WACO           CLOUDY    50  44  80 N7        30.23F
WICHITA FALLS  NOT AVBL
$$
...OTHER LOCATIONS IN NEW MEXICO...

CITY           SKY/WX    TMP DP  RH WIND       PRES   REMARKS
ALAMAGORDO     MOSUNNY   46  30  53 NW7       30.14F
ALBUQUERQUE    PTSUNNY   39  25  57 NW5       30.15F WCI  36
CANNON AFB     SUNNY     47  22  36 SW12      30.04F
CLOVIS         SUNNY     48  23  37 SW18      30.04F
HOLLOMAN AFB   MOSUNNY   48  29  47 NW5       30.12F
ROSWELL        SUNNY     50  28  42 S6        30.06F
RUIDOSO        PTSUNNY   43  18  36 NW9       30.10F WCI  37
SANTA FE       MOSUNNY   36  18  48 N13       30.10F WCI  27
TRUTH OR CONSE SUNNY     45  24  43 E5        30.13F
TUCUMCARI      SUNNY     45  28  51 W6        30.03F
$$



USA.gov is the U.S. government's official web portal to all federal, state and local government web resources and services.